Weather History for Belize, Belize

Change the Weather History Date:

Saturday, October 11, 2014

  Actual Average Record
Temperature  
Mean Temperature 80 °F -  
Max Temperature 85 °F 86 °F 89 °F (2003)
Min Temperature 75 °F 72 °F 71 °F (1996)
Cooling Degree Days 15    
Growing Degree Days 30 (Base 50)    
Moisture  
Dew Point 77 °F    
Average Humidity 88    
Maximum Humidity 100    
Minimum Humidity 74    
Precipitation  
Precipitation 0.35 in 0.30 in - ()
Sea Level Pressure  
Sea Level Pressure 29.88 in    
Wind  
Wind Speed 4 mph ()    
Max Wind Speed 9 mph    
Max Gust Speed -    
Visibility 8.3 miles    
Events Rain    
Averages and records for this station are not official NWS values.
T = Trace of Precipitation, MM = Missing Value Source: Averaged Metar Reports

Daily Weather History Graph

Daily Weather History Graph

Search for Another Location

Airport:

Trip Planner

Search our weather history database for the weather conditions in past years. The results will help you decide how hot, cold, wet, or windy it might be!

Date:

Astronomy

Oct. 11, 2014 Rise Set
Actual Time 5:45 AM CST 5:34 PM CST
Civil Twilight 5:23 AM CST 5:55 PM CST
Nautical Twilight 4:58 AM CST 6:21 PM CST
Astronomical Twilight 4:33 AM CST 6:46 PM CST
Moon 8:26 PM CST (10/11) 8:45 AM CST (10/11)
Length of Visible Light 12h 32m
Length of Day
11h 48m
Waning Gibbous, 87% of the Moon is Illuminated
Oct 11
Waning Gibbous
Oct 15
Last Quarter
Oct 23
New
Oct 30
First Quarter
Nov 6
Full

Hourly Weather History & Observations

Time (CST) Temp. Heat Index Dew Point Humidity Pressure Visibility Wind Dir Wind Speed Gust Speed Precip Events Conditions
12:00 AM 78 °F - 76 °F 94% 29.88 in 12 mi North 3.5 mph - -   Scattered Clouds
3:00 AM 76 °F - 75 °F 97% 29.86 in 12 mi North 8.1 mph - - Rain Light Rain Showers
5:00 AM 75.2 °F - 75.2 °F 100% 29.86 in 6.2 mi NNE 3.5 mph - N/A   Mostly Cloudy
6:00 AM 76 °F - 74 °F 94% 29.89 in 12 mi North 3.5 mph - -   Partly Cloudy
6:00 AM 75.2 °F - 75.2 °F 100% 29.88 in 6.2 mi North 3.5 mph - N/A   Partly Cloudy
7:00 AM 75.2 °F - 75.2 °F 100% 29.90 in 6.2 mi NW 3.5 mph - N/A   Scattered Clouds
8:00 AM 78.8 °F - 75.2 °F 89% 29.91 in 6.2 mi North 5.8 mph - N/A   Mostly Cloudy
9:00 AM 78 °F - 76 °F 91% 29.94 in 12 mi SSW 2.3 mph - -   Partly Cloudy
9:00 AM 78.8 °F - 75.2 °F 89% 29.94 in 6.2 mi SSW 2.3 mph - N/A   Scattered Clouds
10:00 AM 78.8 °F - 77.0 °F 94% 29.91 in 6.2 mi SW 3.5 mph - N/A   Scattered Clouds
11:00 AM 80.6 °F 88.1 °F 78.8 °F 94% 29.90 in 6.2 mi WSW 2.3 mph - N/A   Scattered Clouds
12:00 PM 85 °F - 79 °F 77% 29.88 in 12 mi ENE 5.8 mph - -   Mostly Cloudy
12:00 PM 86.0 °F 99.3 °F 78.8 °F 79% 29.88 in 6.2 mi ENE 5.8 mph - N/A   Mostly Cloudy
1:00 PM 84.2 °F 96.1 °F 78.8 °F 84% 29.85 in 6.2 mi NE 8.1 mph - N/A   Scattered Clouds
2:00 PM 84.2 °F 96.1 °F 78.8 °F 84% 29.84 in 6.2 mi NE 6.9 mph - N/A   Scattered Clouds
3:00 PM 83 °F - 77 °F 78% 29.84 in 12 mi NE 9.2 mph - -   Scattered Clouds
3:00 PM 84.2 °F 94.1 °F 77.0 °F 79% 29.83 in 6.2 mi NE 9.2 mph - N/A   Partly Cloudy
4:00 PM 86.0 °F 96.9 °F 77.0 °F 74% 29.83 in 6.2 mi ENE 9.2 mph - N/A   Partly Cloudy
5:00 PM 84.2 °F 92.3 °F 75.2 °F 74% 29.84 in 6.2 mi NE 6.9 mph - N/A   Partly Cloudy
6:00 PM 81 °F - 78 °F 88% 29.86 in 12 mi Calm Calm - -   Scattered Clouds
6:00 PM 80.6 °F 88.1 °F 78.8 °F 94% 29.86 in 6.2 mi Calm Calm - N/A   Partly Cloudy
9:00 PM 79 °F - 78 °F 94% 29.91 in 12 mi Calm Calm - -   Mostly Cloudy